Wetterdaten: Woche 23.01.17 - 29.01.17 (KW4)
Datum Zeit Temp. Aussen Temp. o. S. +5cm Feuchte Auss BlattFeu 1 Luftdruck Regen Sonnenschein Regendauer Solar Windben Empfang
23.01.2017 00:00 -5,8 C -6,4 C -8,7 C 91 % 1 lf 1025,8 hPa 0,0 l/m 0,00 h 0,00 h 0 W/m 5,6 km/h (1 Bft) 96,57 %
23.01.2017 01:00 -5,8 C -6,8 C -8,9 C 91 % 1 lf 1025,7 hPa 0,0 l/m 0,00 h 0,00 h 0 W/m 1,9 km/h (1 Bft) 96,14 %
23.01.2017 02:00 -5,8 C -6,4 C -8,1 C 92 % 1 lf 1026,0 hPa 0,0 l/m 0,00 h 0,00 h 0 W/m 6,9 km/h (2 Bft) 97,72 %
23.01.2017 03:00 -5,8 C -7,1 C -8,9 C 92 % 1 lf 1025,7 hPa 0,0 l/m 0,00 h 0,00 h 0 W/m 2,7 km/h (1 Bft) 95,63 %
23.01.2017 04:00 -6,4 C -7,4 C -9,3 C 92 % 1 lf 1025,5 hPa 0,0 l/m 0,00 h 0,00 h 0 W/m 0,0 km/h (0 Bft) 93,88 %
23.01.2017 05:00 -6,8 C -7,0 C -8,6 C 92 % 1 lf 1025,5 hPa 0,0 l/m 0,00 h 0,00 h 0 W/m 0,6 km/h (0 Bft) 96,51 %
23.01.2017 06:00 -6,7 C -7,1 C -8,4 C 93 % 1 lf 1025,9 hPa 0,0 l/m 0,00 h 0,00 h 0 W/m 0,0 km/h (0 Bft) 95,37 %
23.01.2017 07:00 -6,7 C -6,1 C -7,0 C 93 % 1 lf 1026,4 hPa 0,0 l/m 0,00 h 0,00 h 0 W/m 0,0 km/h (0 Bft) 96,15 %
23.01.2017 08:00 -5,8 C -5,1 C -6,2 C 94 % 1 lf 1026,8 hPa 0,0 l/m 0,00 h 0,00 h 9 W/m 4,2 km/h (1 Bft) 96,80 %
23.01.2017 09:00 -4,8 C -3,9 C -4,8 C 95 % 1 lf 1027,0 hPa 0,0 l/m 0,00 h 0,00 h 17 W/m 5,1 km/h (1 Bft) 94,80 %
23.01.2017 10:00 -3,8 C -2,6 C -3,4 C 95 % 2 lf 1027,0 hPa 0,0 l/m 0,00 h 0,00 h 36 W/m 6,0 km/h (2 Bft) 95,16 %
23.01.2017 11:00 -2,3 C -1,3 C -2,1 C 96 % 4 lf 1027,0 hPa 0,0 l/m 0,00 h 0,00 h 54 W/m 6,6 km/h (2 Bft) 96,93 %
23.01.2017 12:00 -1,3 C -0,3 C -1,3 C 96 % 15 lf 1026,9 hPa 0,2 l/m 0,00 h 0,00 h 61 W/m 4,7 km/h (1 Bft) 96,65 %
23.01.2017 13:00 -0,6 C 0,0 C -0,9 C 97 % 15 lf 1026,7 hPa 0,0 l/m 0,00 h 0,00 h 57 W/m 2,7 km/h (1 Bft) 95,88 %
23.01.2017 14:00 -0,3 C 0,6 C -0,6 C 97 % 15 lf 1026,4 hPa 0,0 l/m 0,00 h 0,00 h 46 W/m 5,5 km/h (1 Bft) 95,08 %
23.01.2017 15:00 -0,1 C 0,3 C -0,6 C 97 % 4 lf 1026,3 hPa 0,0 l/m 0,00 h 0,00 h 28 W/m 2,0 km/h (1 Bft) 97,47 %
23.01.2017 16:00 -0,1 C 0,0 C -1,1 C 96 % 1 lf 1026,3 hPa 0,0 l/m 0,00 h 0,00 h 10 W/m 1,0 km/h (0 Bft) 95,15 %
23.01.2017 17:00 -0,2 C 0,0 C -1,5 C 96 % 1 lf 1026,2 hPa 0,0 l/m 0,00 h 0,00 h 5 W/m 1,3 km/h (1 Bft) 96,35 %
23.01.2017 18:00 -0,3 C -0,0 C -1,7 C 96 % 0 lf 1026,2 hPa 0,0 l/m 0,00 h 0,00 h 0 W/m 1,0 km/h (0 Bft) 95,66 %
23.01.2017 19:00 -0,3 C -0,0 C -1,3 C 95 % 0 lf 1026,1 hPa 0,0 l/m 0,00 h 0,00 h 0 W/m 2,0 km/h (1 Bft) 93,96 %
23.01.2017 20:00 -0,3 C 0,0 C -1,1 C 95 % 0 lf 1026,1 hPa 0,0 l/m 0,00 h 0,00 h 0 W/m 5,0 km/h (1 Bft) 98,91 %
23.01.2017 21:00 -0,4 C -0,4 C -1,6 C 94 % 0 lf 1026,0 hPa 0,0 l/m 0,00 h 0,00 h 0 W/m 7,9 km/h (2 Bft) 95,44 %
23.01.2017 22:00 -0,4 C -0,5 C -1,7 C 93 % 1 lf 1026,0 hPa 0,0 l/m 0,00 h 0,00 h 0 W/m 6,9 km/h (2 Bft) 93,82 %
23.01.2017 23:00 -0,4 C -0,1 C -1,7 C 93 % 1 lf 1025,9 hPa 0,0 l/m 0,00 h 0,00 h 0 W/m 7,9 km/h (2 Bft) 96,52 %
24.01.2017 00:00 -0,4 C 0,0 C -1,7 C 93 % 1 lf 1025,8 hPa 0,0 l/m 0,00 h 0,00 h 0 W/m 7,0 km/h (2 Bft) 95,94 %
24.01.2017 01:00 -0,4 C -0,3 C -1,7 C 94 % 5 lf 1025,7 hPa 0,0 l/m 0,00 h 0,13 h 0 W/m 7,5 km/h (2 Bft) 96,42 %
24.01.2017 02:00 -0,4 C -0,6 C -1,7 C 95 % 13 lf 1025,5 hPa 0,0 l/m 0,00 h 0,72 h 0 W/m 7,5 km/h (2 Bft) 95,91 %
24.01.2017 03:00 -0,4 C -0,4 C -1,7 C 95 % 12 lf 1025,4 hPa 0,0 l/m 0,00 h 0,20 h 0 W/m 5,0 km/h (1 Bft) 95,73 %
24.01.2017 04:00 -0,4 C -0,5 C -1,7 C 96 % 11 lf 1025,4 hPa 0,0 l/m 0,00 h 0,00 h 0 W/m 5,1 km/h (1 Bft) 95,06 %
24.01.2017 05:00 -0,6 C -0,6 C -1,7 C 96 % 9 lf 1025,5 hPa 0,0 l/m 0,00 h 0,03 h 0 W/m 7,0 km/h (2 Bft) 96,73 %
24.01.2017 06:00 -0,7 C -0,6 C -1,7 C 96 % 10 lf 1025,6 hPa 0,0 l/m 0,00 h 0,33 h 0 W/m 6,5 km/h (2 Bft) 97,20 %
24.01.2017 07:00 -0,8 C -0,6 C -1,7 C 97 % 9 lf 1026,0 hPa 0,4 l/m 0,00 h 0,47 h 0 W/m 7,0 km/h (2 Bft) 93,51 %
24.01.2017 08:00 -0,9 C -0,6 C -2,2 C 97 % 5 lf 1026,7 hPa 0,4 l/m 0,00 h 0,00 h 6 W/m 7,8 km/h (2 Bft) 95,11 %
24.01.2017 09:00 -1,0 C -0,6 C -1,8 C 97 % 4 lf 1027,1 hPa 0,0 l/m 0,00 h 0,00 h 15 W/m 8,3 km/h (2 Bft) 96,80 %
24.01.2017 10:00 -0,8 C -0,4 C -1,4 C 97 % 8 lf 1027,9 hPa 0,0 l/m 0,00 h 0,00 h 30 W/m 7,6 km/h (2 Bft) 96,34 %
24.01.2017 11:00 -0,5 C 0,1 C -0,9 C 98 % 15 lf 1028,1 hPa 0,0 l/m 0,00 h 0,00 h 46 W/m 6,7 km/h (2 Bft) 94,59 %
24.01.2017 12:00 0,0 C 1,0 C 0,0 C 98 % 13 lf 1028,1 hPa 0,0 l/m 0,00 h 0,00 h 76 W/m 6,0 km/h (2 Bft) 96,41 %
24.01.2017 13:00 0,5 C 1,8 C 0,8 C 98 % 0 lf 1027,9 hPa 0,0 l/m 0,00 h 0,00 h 86 W/m 2,9 km/h (1 Bft) 98,58 %
24.01.2017 14:00 0,9 C 2,2 C 0,8 C 98 % 0 lf 1027,9 hPa 0,0 l/m 0,00 h 0,00 h 86 W/m 4,3 km/h (1 Bft) 92,36 %
24.01.2017 15:00 1,0 C 2,0 C 0,4 C 98 % 0 lf 1028,1 hPa 0,0 l/m 0,00 h 0,00 h 45 W/m 0,6 km/h (0 Bft) 97,65 %
24.01.2017 16:00 0,9 C 1,4 C -0,3 C 98 % 1 lf 1028,4 hPa 0,0 l/m 0,00 h 0,00 h 15 W/m 1,4 km/h (1 Bft) 96,49 %
24.01.2017 17:00 0,6 C 0,9 C -1,0 C 98 % 1 lf 1028,8 hPa 0,0 l/m 0,00 h 0,00 h 5 W/m 3,5 km/h (1 Bft) 94,87 %
24.01.2017 18:00 0,4 C 0,4 C -1,4 C 98 % 1 lf 1029,2 hPa 0,0 l/m 0,00 h 0,00 h 0 W/m 0,6 km/h (0 Bft) 96,02 %
24.01.2017 19:00 0,3 C 0,4 C -1,5 C 97 % 2 lf 1029,3 hPa 0,0 l/m 0,00 h 0,00 h 0 W/m 0,0 km/h (0 Bft) 96,43 %
24.01.2017 20:00 0,1 C 0,1 C -1,3 C 97 % 2 lf 1029,6 hPa 0,0 l/m 0,00 h 0,00 h 0 W/m 1,3 km/h (1 Bft) 96,93 %
24.01.2017 21:00 -0,0 C 0,0 C -1,7 C 97 % 2 lf 1029,8 hPa 0,0 l/m 0,00 h 0,00 h 0 W/m 1,4 km/h (1 Bft) 94,80 %
24.01.2017 22:00 -0,2 C 0,0 C -1,7 C 97 % 3 lf 1029,7 hPa 0,0 l/m 0,00 h 0,00 h 0 W/m 0,7 km/h (0 Bft) 95,73 %
24.01.2017 23:00 -0,2 C 0,0 C -1,7 C 97 % 2 lf 1029,8 hPa 0,0 l/m 0,00 h 0,00 h 0 W/m 0,0 km/h (0 Bft) 95,15 %
25.01.2017 00:00 -0,2 C 0,1 C -1,7 C 97 % 1 lf 1029,7 hPa 0,0 l/m 0,00 h 0,00 h 0 W/m 7,1 km/h (2 Bft) 98,04 %
25.01.2017 01:00 -0,4 C 0,0 C -1,7 C 97 % 0 lf 1029,4 hPa 0,0 l/m 0,00 h 0,00 h 0 W/m 4,5 km/h (1 Bft) 93,52 %
25.01.2017 02:00 -0,4 C 0,0 C -1,7 C 97 % 0 lf 1029,3 hPa 0,0 l/m 0,00 h 0,00 h 0 W/m 7,8 km/h (2 Bft) 96,72 %
25.01.2017 03:00 -0,5 C -0,0 C -1,7 C 94 % 0 lf 1029,5 hPa 0,0 l/m 0,00 h 0,00 h 0 W/m 10,5 km/h (2 Bft) 97,57 %
25.01.2017 04:00 -0,6 C 0,0 C -1,7 C 90 % 0 lf 1029,4 hPa 0,0 l/m 0,00 h 0,00 h 0 W/m 8,7 km/h (2 Bft) 94,74 %
25.01.2017 05:00 -0,7 C -0,4 C -1,7 C 88 % 0 lf 1029,7 hPa 0,0 l/m 0,00 h 0,00 h 0 W/m 10,9 km/h (2 Bft) 95,37 %
25.01.2017 06:00 -0,8 C -0,6 C -2,1 C 87 % 0 lf 1029,7 hPa 0,0 l/m 0,00 h 0,00 h 0 W/m 11,1 km/h (2 Bft) 96,23 %
25.01.2017 07:00 -1,0 C -0,6 C -2,2 C 85 % 0 lf 1029,8 hPa 0,0 l/m 0,00 h 0,00 h 0 W/m 14,1 km/h (3 Bft) 96,30 %
25.01.2017 08:00 -1,1 C -0,6 C -2,2 C 84 % 0 lf 1030,1 hPa 0,0 l/m 0,00 h 0,00 h 7 W/m 15,1 km/h (3 Bft) 94,38 %
25.01.2017 09:00 -1,2 C -0,6 C -2,0 C 84 % 0 lf 1030,4 hPa 0,0 l/m 0,00 h 0,00 h 25 W/m 15,5 km/h (3 Bft) 96,79 %
25.01.2017 10:00 -1,1 C -0,5 C -1,6 C 84 % 0 lf 1030,8 hPa 0,0 l/m 0,00 h 0,00 h 44 W/m 13,1 km/h (3 Bft) 98,29 %
25.01.2017 11:00 -1,1 C -0,2 C -1,1 C 83 % 0 lf 1030,7 hPa 0,0 l/m 0,00 h 0,00 h 74 W/m 15,6 km/h (3 Bft) 92,59 %
25.01.2017 12:00 -0,9 C 0,2 C -0,6 C 81 % 0 lf 1030,0 hPa 0,0 l/m 0,00 h 0,00 h 125 W/m 21,2 km/h (4 Bft) 96,80 %
25.01.2017 13:00 -0,6 C 0,9 C -0,2 C 79 % 0 lf 1029,3 hPa 0,0 l/m 0,23 h 0,00 h 149 W/m 19,6 km/h (3 Bft) 97,15 %
25.01.2017 14:00 0,2 C 4,5 C 0,2 C 77 % 0 lf 1028,6 hPa 0,0 l/m 1,00 h 0,00 h 243 W/m 19,4 km/h (3 Bft) 93,02 %
25.01.2017 15:00 0,5 C 2,3 C -0,7 C 74 % 0 lf 1028,3 hPa 0,0 l/m 1,00 h 0,00 h 134 W/m 19,2 km/h (3 Bft) 96,51 %
25.01.2017 16:00 -0,1 C 0,2 C -1,8 C 76 % 0 lf 1028,1 hPa 0,0 l/m 0,10 h 0,00 h 36 W/m 17,8 km/h (3 Bft) 96,23 %
25.01.2017 17:00 -0,7 C -1,0 C -3,5 C 78 % 0 lf 1027,9 hPa 0,0 l/m 0,00 h 0,00 h 8 W/m 9,2 km/h (2 Bft) 95,80 %
25.01.2017 18:00 -1,5 C -1,7 C -4,5 C 81 % 0 lf 1028,1 hPa 0,0 l/m 0,00 h 0,00 h 0 W/m 7,6 km/h (2 Bft) 95,16 %
25.01.2017 19:00 -1,9 C -1,8 C -4,4 C 82 % 0 lf 1028,0 hPa 0,0 l/m 0,00 h 0,00 h 0 W/m 11,7 km/h (2 Bft) 96,02 %
25.01.2017 20:00 -2,2 C -2,2 C -4,4 C 83 % 0 lf 1027,8 hPa 0,0 l/m 0,00 h 0,00 h 0 W/m 12,1 km/h (2 Bft) 95,72 %
25.01.2017 21:00 -2,6 C -2,4 C -4,9 C 84 % 0 lf 1027,7 hPa 0,0 l/m 0,00 h 0,00 h 0 W/m 10,9 km/h (2 Bft) 94,17 %
25.01.2017 22:00 -2,8 C -2,8 C -5,0 C 85 % 0 lf 1027,6 hPa 0,0 l/m 0,00 h 0,00 h 0 W/m 11,7 km/h (2 Bft) 97,76 %
25.01.2017 23:00 -3,1 C -3,2 C -5,3 C 85 % 0 lf 1027,7 hPa 0,0 l/m 0,00 h 0,00 h 0 W/m 11,9 km/h (2 Bft) 93,93 %
26.01.2017 00:00 -3,4 C -3,3 C -5,6 C 86 % 0 lf 1027,6 hPa 0,0 l/m 0,00 h 0,00 h 0 W/m 10,9 km/h (2 Bft) 96,03 %
26.01.2017 01:00 -3,6 C -3,5 C -5,8 C 87 % 0 lf 1027,2 hPa 0,0 l/m 0,00 h 0,00 h 0 W/m 12,4 km/h (3 Bft) 97,42 %
26.01.2017 02:00 -3,8 C -3,6 C -5,8 C 88 % 0 lf 1026,8 hPa 0,0 l/m 0,00 h 0,00 h 0 W/m 11,1 km/h (2 Bft) 95,25 %
26.01.2017 03:00 -3,9 C -3,8 C -5,9 C 88 % 0 lf 1026,1 hPa 0,0 l/m 0,00 h 0,00 h 0 W/m 12,5 km/h (3 Bft) 96,22 %
26.01.2017 04:00 -4,0 C -3,9 C -6,1 C 89 % 0 lf 1025,9 hPa 0,0 l/m 0,00 h 0,00 h 0 W/m 10,6 km/h (2 Bft) 96,33 %
26.01.2017 05:00 -4,2 C -4,1 C -6,4 C 89 % 0 lf 1025,7 hPa 0,0 l/m 0,00 h 0,00 h 0 W/m 9,5 km/h (2 Bft) 97,08 %
26.01.2017 06:00 -4,0 C -3,8 C -5,9 C 90 % 0 lf 1025,4 hPa 0,0 l/m 0,00 h 0,00 h 0 W/m 12,6 km/h (3 Bft) 94,17 %
26.01.2017 07:00 -4,0 C -3,5 C -5,3 C 90 % 0 lf 1025,1 hPa 0,0 l/m 0,00 h 0,00 h 0 W/m 8,4 km/h (2 Bft) 96,58 %
26.01.2017 08:00 -3,7 C -3,2 C -4,8 C 89 % 0 lf 1025,0 hPa 0,0 l/m 0,07 h 0,00 h 15 W/m 9,4 km/h (2 Bft) 97,23 %
26.01.2017 09:00 -3,1 C -1,6 C -3,4 C 89 % 0 lf 1024,9 hPa 0,0 l/m 0,97 h 0,00 h 100 W/m 12,6 km/h (3 Bft) 95,33 %
26.01.2017 10:00 -1,7 C 1,6 C -2,5 C 86 % 0 lf 1024,7 hPa 0,0 l/m 1,00 h 0,00 h 203 W/m 19,4 km/h (3 Bft) 96,53 %
26.01.2017 11:00 -0,0 C 4,1 C -1,4 C 79 % 0 lf 1024,4 hPa 0,0 l/m 0,97 h 0,00 h 279 W/m 26,6 km/h (4 Bft) 93,87 %
26.01.2017 12:00 0,8 C 4,3 C -0,6 C 75 % 0 lf 1023,6 hPa 0,0 l/m 1,00 h 0,00 h 317 W/m 26,2 km/h (4 Bft) 96,38 %
26.01.2017 13:00 1,6 C 5,8 C 0,3 C 72 % 0 lf 1023,0 hPa 0,0 l/m 1,00 h 0,00 h 303 W/m 23,1 km/h (4 Bft) 95,87 %
26.01.2017 14:00 2,1 C 6,5 C 1,0 C 70 % 0 lf 1022,4 hPa 0,0 l/m 1,00 h 0,00 h 233 W/m 23,8 km/h (4 Bft) 98,00 %
26.01.2017 15:00 2,2 C 4,1 C 0,5 C 69 % 0 lf 1022,0 hPa 0,0 l/m 0,97 h 0,00 h 126 W/m 19,5 km/h (3 Bft) 96,59 %
26.01.2017 16:00 1,5 C 1,8 C -0,7 C 71 % 0 lf 1021,8 hPa 0,0 l/m 0,07 h 0,00 h 36 W/m 15,6 km/h (3 Bft) 95,82 %
26.01.2017 17:00 0,8 C 0,7 C -2,1 C 74 % 0 lf 1021,6 hPa 0,0 l/m 0,00 h 0,00 h 9 W/m 15,2 km/h (3 Bft) 97,79 %
26.01.2017 18:00 0,2 C 0,0 C -2,9 C 76 % 0 lf 1021,5 hPa 0,0 l/m 0,00 h 0,00 h 0 W/m 12,1 km/h (2 Bft) 93,60 %
26.01.2017 19:00 -0,5 C -0,5 C -3,3 C 79 % 0 lf 1020,9 hPa 0,0 l/m 0,00 h 0,00 h 0 W/m 13,3 km/h (3 Bft) 95,02 %
26.01.2017 20:00 -0,7 C -0,8 C -3,7 C 79 % 0 lf 1020,7 hPa 0,0 l/m 0,00 h 0,00 h 0 W/m 9,5 km/h (2 Bft) 97,01 %
26.01.2017 21:00 -1,1 C -1,1 C -4,1 C 81 % 0 lf 1020,4 hPa 0,0 l/m 0,00 h 0,00 h 0 W/m 11,7 km/h (2 Bft) 95,94 %
26.01.2017 22:00 -1,1 C -0,7 C -3,3 C 81 % 0 lf 1019,9 hPa 0,0 l/m 0,00 h 0,00 h 0 W/m 16,8 km/h (3 Bft) 95,16 %
26.01.2017 23:00 -1,2 C -1,1 C -3,8 C 81 % 0 lf 1019,5 hPa 0,0 l/m 0,00 h 0,00 h 0 W/m 13,5 km/h (3 Bft) 97,08 %
27.01.2017 00:00 -1,2 C -1,0 C -3,4 C 80 % 0 lf 1018,8 hPa 0,0 l/m 0,00 h 0,00 h 0 W/m 17,7 km/h (3 Bft) 95,19 %
27.01.2017 01:00 -1,3 C -1,1 C -3,7 C 80 % 0 lf 1018,2 hPa 0,0 l/m 0,00 h 0,00 h 0 W/m 17,2 km/h (3 Bft) 96,86 %
27.01.2017 02:00 -1,5 C -1,6 C -4,2 C 79 % 0 lf 1017,7 hPa 0,0 l/m 0,00 h 0,00 h 0 W/m 14,1 km/h (3 Bft) 95,65 %
27.01.2017 03:00 -1,9 C -1,6 C -4,1 C 81 % 0 lf 1017,3 hPa 0,0 l/m 0,00 h 0,00 h 0 W/m 18,7 km/h (3 Bft) 95,02 %
27.01.2017 04:00 -1,6 C -1,1 C -3,3 C 81 % 0 lf 1017,4 hPa 0,0 l/m 0,00 h 0,00 h 0 W/m 23,9 km/h (4 Bft) 96,22 %
27.01.2017 05:00 -1,6 C -1,4 C -3,6 C 80 % 0 lf 1017,2 hPa 0,0 l/m 0,00 h 0,00 h 0 W/m 22,5 km/h (4 Bft) 96,10 %
27.01.2017 06:00 -1,7 C -1,5 C -3,3 C 80 % 0 lf 1016,9 hPa 0,0 l/m 0,00 h 0,00 h 0 W/m 25,2 km/h (4 Bft) 97,22 %
27.01.2017 07:00 -1,7 C -1,2 C -3,3 C 79 % 0 lf 1016,9 hPa 0,0 l/m 0,00 h 0,00 h 4 W/m 28,2 km/h (4 Bft) 92,03 %
27.01.2017 08:00 -1,5 C -1,1 C -3,0 C 79 % 0 lf 1016,8 hPa 0,0 l/m 0,17 h 0,00 h 18 W/m 28,2 km/h (4 Bft) 97,44 %
27.01.2017 09:00 -0,9 C -0,1 C -1,8 C 78 % 0 lf 1017,1 hPa 0,0 l/m 0,97 h 0,00 h 76 W/m 29,4 km/h (5 Bft) 95,59 %
27.01.2017 10:00 0,4 C 2,7 C -0,1 C 75 % 0 lf 1017,4 hPa 0,0 l/m 1,00 h 0,00 h 210 W/m 27,7 km/h (4 Bft) 93,95 %
27.01.2017 11:00 2,0 C 4,6 C 1,1 C 72 % 0 lf 1017,7 hPa 0,0 l/m 1,00 h 0,00 h 221 W/m 26,1 km/h (4 Bft) 96,22 %
27.01.2017 12:00 3,2 C 5,5 C 2,0 C 70 % 0 lf 1017,6 hPa 0,0 l/m 0,63 h 0,00 h 216 W/m 25,4 km/h (4 Bft) 95,83 %
27.01.2017 13:00 3,4 C 4,9 C 3,0 C 70 % 0 lf 1017,2 hPa 0,0 l/m 0,80 h 0,00 h 192 W/m 21,8 km/h (4 Bft) 95,44 %
27.01.2017 14:00 4,5 C 6,5 C 3,7 C 68 % 0 lf 1016,9 hPa 0,0 l/m 0,67 h 0,00 h 169 W/m 18,7 km/h (3 Bft) 95,73 %
27.01.2017 15:00 4,2 C 4,7 C 2,6 C 69 % 0 lf 1016,9 hPa 0,0 l/m 0,00 h 0,00 h 84 W/m 21,5 km/h (4 Bft) 96,72 %
27.01.2017 16:00 3,5 C 3,8 C 1,4 C 70 % 0 lf 1017,0 hPa 0,0 l/m 0,00 h 0,00 h 34 W/m 18,4 km/h (3 Bft) 95,58 %
27.01.2017 17:00 2,8 C 2,9 C 0,5 C 73 % 0 lf 1017,1 hPa 0,0 l/m 0,00 h 0,00 h 7 W/m 19,4 km/h (3 Bft) 95,51 %
27.01.2017 18:00 2,4 C 2,8 C 0,3 C 74 % 0 lf 1017,4 hPa 0,0 l/m 0,00 h 0,00 h 0 W/m 21,0 km/h (4 Bft) 95,23 %
27.01.2017 19:00 2,2 C 2,3 C 0,0 C 74 % 0 lf 1017,6 hPa 0,0 l/m 0,00 h 0,00 h 0 W/m 18,6 km/h (3 Bft) 96,87 %
27.01.2017 20:00 2,1 C 2,6 C 0,0 C 73 % 0 lf 1017,6 hPa 0,0 l/m 0,00 h 0,00 h 0 W/m 19,2 km/h (3 Bft) 96,59 %
27.01.2017 21:00 2,1 C 2,3 C -0,0 C 72 % 0 lf 1017,7 hPa 0,0 l/m 0,00 h 0,00 h 0 W/m 23,7 km/h (4 Bft) 93,31 %
27.01.2017 22:00 1,7 C 1,9 C -0,6 C 73 % 0 lf 1017,6 hPa 0,0 l/m 0,00 h 0,00 h 0 W/m 23,9 km/h (4 Bft) 95,36 %
27.01.2017 23:00 1,5 C 1,7 C -1,0 C 73 % 0 lf 1017,6 hPa 0,0 l/m 0,00 h 0,00 h 0 W/m 16,5 km/h (3 Bft) 98,43 %
28.01.2017 00:00 1,1 C 1,2 C -1,4 C 74 % 0 lf 1017,3 hPa 0,0 l/m 0,00 h 0,00 h 0 W/m 15,5 km/h (3 Bft) 93,96 %
28.01.2017 01:00 1,2 C 1,6 C -1,1 C 73 % 0 lf 1016,8 hPa 0,0 l/m 0,00 h 0,00 h 0 W/m 18,4 km/h (3 Bft) 96,04 %
28.01.2017 02:00 1,0 C 1,1 C -1,1 C 73 % 0 lf 1016,5 hPa 0,0 l/m 0,00 h 0,00 h 0 W/m 16,6 km/h (3 Bft) 96,49 %
28.01.2017 03:00 0,8 C 1,1 C -1,1 C 74 % 0 lf 1016,3 hPa 0,0 l/m 0,00 h 0,00 h 0 W/m 22,1 km/h (4 Bft) 95,37 %
28.01.2017 04:00 0,9 C 1,4 C -0,7 C 74 % 0 lf 1016,1 hPa 0,0 l/m 0,00 h 0,00 h 0 W/m 17,1 km/h (3 Bft) 79,38 %
28.01.2017 05:00 1,4 C 1,9 C -0,6 C 71 % 0 lf 1015,9 hPa 0,0 l/m 0,00 h 0,00 h 0 W/m 21,0 km/h (4 Bft) 94,81 %
28.01.2017 06:00 1,7 C 2,2 C -0,6 C 68 % 0 lf 1016,0 hPa 0,0 l/m 0,00 h 0,00 h 0 W/m 18,1 km/h (3 Bft) 94,86 %
28.01.2017 07:00 1,7 C 2,2 C -0,2 C 68 % 0 lf 1015,9 hPa 0,0 l/m 0,00 h 0,00 h 0 W/m 18,2 km/h (3 Bft) 96,92 %
28.01.2017 08:00 1,7 C 2,2 C -0,0 C 67 % 0 lf 1016,2 hPa 0,0 l/m 0,33 h 0,00 h 21 W/m 19,6 km/h (3 Bft) 96,64 %
28.01.2017 09:00 1,9 C 3,0 C 0,6 C 66 % 0 lf 1016,6 hPa 0,0 l/m 1,00 h 0,00 h 114 W/m 22,6 km/h (4 Bft) 94,10 %
28.01.2017 10:00 2,9 C 4,7 C 2,2 C 65 % 0 lf 1016,6 hPa 0,0 l/m 0,83 h 0,00 h 178 W/m 21,2 km/h (4 Bft) 96,00 %
28.01.2017 11:00 3,6 C 4,9 C 3,2 C 64 % 0 lf 1016,4 hPa 0,0 l/m 0,13 h 0,00 h 151 W/m 19,2 km/h (3 Bft) 96,37 %
28.01.2017 12:00 5,4 C 9,1 C 5,2 C 62 % 0 lf 1015,9 hPa 0,0 l/m 1,00 h 0,00 h 338 W/m 20,3 km/h (4 Bft) 94,88 %
28.01.2017 13:00 7,1 C 9,3 C 5,9 C 62 % 0 lf 1015,3 hPa 0,0 l/m 0,73 h 0,00 h 217 W/m 19,4 km/h (3 Bft) 97,85 %
28.01.2017 14:00 7,6 C 8,8 C 6,7 C 65 % 0 lf 1015,0 hPa 0,0 l/m 0,20 h 0,00 h 134 W/m 17,3 km/h (3 Bft) 94,21 %
28.01.2017 15:00 7,6 C 8,4 C 6,4 C 68 % 0 lf 1014,8 hPa 0,0 l/m 0,50 h 0,00 h 109 W/m 12,3 km/h (3 Bft) 95,75 %
28.01.2017 16:00 7,4 C 7,5 C 4,2 C 72 % 0 lf 1014,8 hPa 0,0 l/m 0,07 h 0,00 h 35 W/m 11,3 km/h (2 Bft) 96,78 %
28.01.2017 17:00 6,8 C 6,8 C 3,1 C 78 % 0 lf 1015,0 hPa 0,0 l/m 0,00 h 0,00 h 9 W/m 9,9 km/h (2 Bft) 94,35 %
28.01.2017 18:00 6,6 C 6,7 C 3,1 C 81 % 0 lf 1015,5 hPa 0,0 l/m 0,00 h 0,00 h 0 W/m 7,2 km/h (2 Bft) 97,23 %
28.01.2017 19:00 6,4 C 6,5 C 2,4 C 83 % 0 lf 1015,7 hPa 0,0 l/m 0,00 h 0,00 h 0 W/m 6,9 km/h (2 Bft) 95,66 %
28.01.2017 20:00 6,1 C 6,2 C 3,0 C 85 % 0 lf 1016,0 hPa 0,0 l/m 0,00 h 0,00 h 0 W/m 8,0 km/h (2 Bft) 93,39 %
28.01.2017 21:00 5,8 C 5,9 C 2,8 C 86 % 0 lf 1016,1 hPa 0,0 l/m 0,00 h 0,03 h 0 W/m 7,4 km/h (2 Bft) 98,35 %
28.01.2017 22:00 5,3 C 5,1 C 3,1 C 88 % 3 lf 1016,7 hPa 0,0 l/m 0,00 h 0,53 h 0 W/m 12,0 km/h (2 Bft) 96,43 %
28.01.2017 23:00 5,1 C 4,8 C 2,5 C 92 % 6 lf 1016,9 hPa 0,2 l/m 0,00 h 0,83 h 0 W/m 8,3 km/h (2 Bft) 94,45 %
29.01.2017 00:00 5,2 C 5,1 C 2,4 C 94 % 11 lf 1017,2 hPa 0,0 l/m 0,00 h 0,10 h 0 W/m 8,4 km/h (2 Bft) 96,65 %
29.01.2017 01:00 5,4 C 5,4 C 2,9 C 95 % 1 lf 1017,3 hPa 0,0 l/m 0,00 h 0,00 h 0 W/m 11,7 km/h (2 Bft) 97,15 %
29.01.2017 02:00 5,2 C 5,0 C 2,4 C 95 % 1 lf 1017,2 hPa 0,0 l/m 0,00 h 0,00 h 0 W/m 11,2 km/h (2 Bft) 95,75 %
29.01.2017 03:00 5,0 C 4,8 C 2,0 C 95 % 1 lf 1017,3 hPa 0,0 l/m 0,00 h 0,00 h 0 W/m 10,8 km/h (2 Bft) 95,22 %
29.01.2017 04:00 4,4 C 4,0 C 0,9 C 94 % 2 lf 1017,3 hPa 0,0 l/m 0,00 h 0,00 h 0 W/m 8,8 km/h (2 Bft) 96,80 %
29.01.2017 05:00 3,6 C 3,3 C 0,4 C 94 % 9 lf 1017,3 hPa 0,0 l/m 0,00 h 0,00 h 0 W/m 10,5 km/h (2 Bft) 96,04 %
29.01.2017 06:00 3,0 C 3,2 C 0,7 C 95 % 6 lf 1017,3 hPa 0,0 l/m 0,00 h 0,00 h 0 W/m 11,1 km/h (2 Bft) 96,16 %
29.01.2017 07:00 3,0 C 3,5 C 1,2 C 95 % 1 lf 1017,4 hPa 0,0 l/m 0,00 h 0,00 h 0 W/m 15,1 km/h (3 Bft) 96,27 %
29.01.2017 08:00 3,6 C 3,6 C 1,8 C 95 % 11 lf 1017,9 hPa 1,0 l/m 0,00 h 0,85 h 7 W/m 17,1 km/h (3 Bft) 92,76 %
29.01.2017 09:00 3,8 C 3,9 C 2,2 C 95 % 15 lf 1018,0 hPa 0,0 l/m 0,00 h 0,03 h 21 W/m 14,1 km/h (3 Bft) 95,44 %
29.01.2017 10:00 3,8 C 4,3 C 2,6 C 96 % 7 lf 1017,9 hPa 0,0 l/m 0,00 h 0,00 h 73 W/m 13,3 km/h (3 Bft) 97,92 %
29.01.2017 11:00 5,1 C 8,0 C 3,6 C 96 % 1 lf 1017,8 hPa 0,0 l/m 0,73 h 0,00 h 193 W/m 15,4 km/h (3 Bft) 93,18 %
29.01.2017 12:00 7,2 C 11,4 C 5,4 C 89 % 0 lf 1017,6 hPa 0,0 l/m 1,00 h 0,00 h 295 W/m 21,3 km/h (4 Bft) 97,84 %
29.01.2017 13:00 7,9 C 10,2 C 5,8 C 81 % 0 lf 1017,5 hPa 0,0 l/m 0,57 h 0,00 h 189 W/m 24,0 km/h (4 Bft) 98,22 %
29.01.2017 14:00 8,2 C 12,1 C 6,8 C 80 % 0 lf 1017,4 hPa 0,2 l/m 0,80 h 0,00 h 219 W/m 23,1 km/h (4 Bft) 93,65 %
29.01.2017 15:00 7,8 C 9,8 C 6,0 C 78 % 0 lf 1017,6 hPa 0,0 l/m 1,00 h 0,00 h 148 W/m 21,3 km/h (4 Bft) 97,44 %
29.01.2017 16:00 7,4 C 7,7 C 5,2 C 79 % 0 lf 1017,8 hPa 0,0 l/m 0,70 h 0,00 h 65 W/m 17,6 km/h (3 Bft) 97,30 %
29.01.2017 17:00 6,4 C 5,8 C 2,2 C 81 % 0 lf 1017,9 hPa 0,0 l/m 0,13 h 0,00 h 10 W/m 10,3 km/h (2 Bft) 94,19 %
29.01.2017 18:00 5,1 C 4,4 C -0,0 C 84 % 0 lf 1018,0 hPa 0,0 l/m 0,00 h 0,00 h 5 W/m 8,9 km/h (2 Bft) 94,68 %
29.01.2017 19:00 4,2 C 4,3 C 1,1 C 87 % 0 lf 1018,1 hPa 0,0 l/m 0,00 h 0,00 h 5 W/m 13,6 km/h (3 Bft) 97,60 %
29.01.2017 20:00 3,9 C 3,7 C 0,9 C 86 % 0 lf 1017,8 hPa 0,0 l/m 0,00 h 0,00 h 5 W/m 10,6 km/h (2 Bft) 94,25 %
29.01.2017 21:00 3,2 C 3,3 C 0,7 C 87 % 0 lf 1017,7 hPa 0,0 l/m 0,00 h 0,00 h 5 W/m 10,8 km/h (2 Bft) 98,22 %
29.01.2017 22:00 3,0 C 3,1 C 0,8 C 89 % 0 lf 1017,1 hPa 0,0 l/m 0,00 h 0,00 h 5 W/m 11,1 km/h (2 Bft) 93,92 %
29.01.2017 23:00 2,6 C 2,8 C 0,9 C 90 % 0 lf 1016,1 hPa 0,0 l/m 0,00 h 0,00 h 5 W/m 11,4 km/h (2 Bft) 94,96 %
Min-Datum _ 23.01.17 23.01.17 23.01.17 28.01.17 23.01.17 28.01.17 - - - - 23.01.17 28.01.17
_ Min-Zeit 05:20 03:48 01:16 12:58 16:34 15:06 - - - - 01:14 04:02
Minimum _ -6,9 C -7,8 C -9,4 C 60 % 0 lf 1014,7 hPa - - - - 0,0 km/h (0 Bft) 0,00 %
Max-Datum _ 29.01.17 29.01.17 29.01.17 24.01.17 23.01.17 25.01.17 29.01.17 25.01.17 24.01.17 28.01.17 27.01.17 23.01.17
_ Max-Zeit 14:26 14:10 14:20 11:20 12:08 10:28 08:28 13:24 01:50 12:58 07:54 00:12
Maximum _ 8,4 C 15,0 C 7,2 C 98 % 15 lf 1030,9 hPa 1,0 l/m 0,03 h 0,03 h 427 W/m 43,9 km/h
SO (6 Bft)
100,00 %
Durchschnitt _ 0,6 C 1,2 C -1,1 C 85 % 2 lf 1022,5 hPa #2,4 l/m #24:20 h #4:16 h 91 W/m 12,4 km/h (3 Bft) 95,76 %
© 2017 W. Hausmann